Погода в Пуксоозере

Россия / Архангельская область     62°35′24″N   40°36′26″E
темп.,
°C
ветер,
м/с
пор.,
м/с
влажн.,
%
обл.,
%
осадки,
мм/ч
давл.,
гПа
погр.,
м
7 мая, пт
пт700:00+8юв61496100 3.5 9951012
03:00+7ююз61287100 4.6 9961064
06:00+5ююз41093100 0.3 998982
09:00+6ююз51085100 0.4 10001212
12:00+5ююз499098 0.1 1003835
15:00+8юз587370 0.6 10041146
18:00+8юз367463 0.3 10041010
21:00+4юз269460 0.3 1007139
8 мая, сб
сб800:00+2ююз269818 0.0 1008124
03:00+4ююв2694100 0.0 1010227
06:00+4ююв268935 0.0 1010225
09:00+9ююв4764100 0.0 1010788
12:00+12ю6957100 0.1 10091676
15:00+12ююв61460100 0.8 10081902
18:00+9ююв51472100 0.7 10071494
21:00+7ююв51487100 2.7 10061314
9 мая, вс
вс900:00+7ююв41193100 2.5 10031272
03:00+7вюв31095100 3.7 999569
06:00+7ююв1799100 0.9 1001467
09:00+6зсз3697100 2.8 1002465
12:00+6з4795100 2.8 1004974
15:00+2зсз51297100 3.8 1009689
18:00+6з4107329 0.2 10111395
21:00+3зюз310838 0.3 1015253
10 мая, пн
пн1000:00+1юз310905 0.0 1017266
03:00+1ююз39965 0.0 1020209
06:00+3ююз388764 0.0 1020264
09:00+8юз51167100 0.0 10211074
12:00+10юз586189 0.4 10211625
15:00+10юз4870100 0.8 10211234
18:00+7юз3889100 0.1 1022737
21:00+6ю41196100 1.8 1020542
11 мая, вт
вт1100:00+8юз41497100 0.7 1020585
03:00+11юз51693100 0.8 1020716
06:00+11юз5169096 0.0 1020730
09:00+14юз51480100 0.0 1021838
12:00+18зюз611586 0.0 10211330
15:00+20зюз51251100 0.0 10211585
18:00+17зюз5125695 0.0 10221307
21:00+14зюз41369100 0.0 1022533